User: anonymous   Login
Location: Cincinnati Observatory Center
(39.1389°N, 84.4225°W)
Time: 15:21:49
(UTC-04:00)
Language:

Hubble Space Telescope - Orbit

View from above orbital plane
View from above orbital plane
View from above satellite
View from above satellite

Ground track
Ground track

The orbit data is extracted from the following two-line orbital elements,

1 20580U 90037B   17178.97421296 +.00000453 +00000-0 +16921-4 0  9993
2 20580 028.4701 296.2427 0002575 292.6764 026.1883 15.08789622291824
Epoch (UTC): 27 June 2017 23:22:52
Eccentricity: 0.0002575
inclination: 28.4701°
perigee height: 538 km
apogee height: 541 km
right ascension of ascending node: 296.2427°
argument of perigee: 292.6764°
revolutions per day: 15.08789622
mean anomaly at epoch: 26.1883°
orbit number at epoch: 29182

The dashed part of the orbit path shows where the satellite is in the earth's shadow,  

DLR